Location: ???????
(55.3754°N, 39.3545°E)
Time: 08:47:03
(UTC+00:00)

Okean 1 Rocket - Pass Details

Date: 14 April 2026
Orbit: 601 x 625 km, 82.5° (Epoch: 9 May)

Event Time Altitude Azimuth Distance (km) Brightness Sun altitude
Exits shadow 20:16:46 27° 75° (ENE) 1,188 4.4 -23.5°
Drops below altitude 10° 20:19:54 10° 31° (NNE) 1,966 6.2 -23.7°
Sets 20:22:22 0° 19° (NNE) 2,879 7.3 -23.8°
